Flag for Germany Weather past 2 weeks in Nürburg, Rhineland-Palatinate, Germany

Now
61 °F

Passing clouds.


Feels Like: 61 °F
Forecast: 58 / 72 °F
Wind: No wind

Location: Nuerburg-Barweiler

Current Time: Sep 18, 2014 at 2:25:18 AM

Latest Report: Sep 18, 2014 at 2:00 AM


Visibility: 9 mi

Pressure: 29.87 "Hg

Humidity: 82%

Dew point: 56 °F

Location of NürburgLocation

Historic Weather in Nürburg — Graph

°F

Nürburg temperature yesterday

Maximum temperature yesterday: 73 °F (at 4:00 PM)
Minimum temperature yesterday: 53 °F (at 7:00 AM)
Average temperature yesterday: 62 °F

Past Weeks' High & Low Weather Summary

 TemperatureHumidityPressure
High73 °F (Sep 5, 6:00 PM)100% (Sep 8, 8:00 AM)30.24 "Hg (Sep 8, 8:00 AM)
Low43 °F (Sep 12, 7:00 AM)55% (Sep 5, 6:00 PM)29.83 "Hg (Sep 17, 6:00 PM)
Average57 °F87%30.06 "Hg
* Reported Sep 3 1:00 AM — Sep 18 1:00 AM, Nürburg, Weather by CustomWeather, © 2014

Note: Actual official high and low records may vary slightly from our data, if they occured in-between our weather recording intervals... More about our weather records

Advertising

Nürburg weather history for previous 24 hours

 ConditionsComfort  
Time TempWeatherWind HumidityBarometerVisibility
1:00 AM
Sep 18
62 °FOvercast.2 mph80%29.87 "Hg15 mi
12:00 AM62 °FOvercast.3 mph79%29.87 "Hg15 mi
10:00 PM
Sep 17
64 °FOvercast.3 mph77%29.87 "Hg16 mi
9:00 PM64 °FPassing clouds.3 mph79%29.87 "Hg25 mi
8:00 PM66 °FPassing clouds.3 mph73%29.86 "Hg25 mi
7:00 PM68 °FPartly sunny.2 mph68%29.85 "Hg25 mi
6:00 PM71 °FPassing clouds.3 mph65%29.83 "Hg25 mi
5:00 PM71 °FScattered clouds.2 mph60%29.84 "Hg25 mi
4:00 PM73 °FPassing clouds.3 mph55%29.83 "Hg25 mi
3:00 PM71 °FPassing clouds.3 mph58%29.86 "Hg25 mi
2:00 PM70 °FPassing clouds.3 mph60%29.87 "Hg25 mi
1:00 PM68 °FPassing clouds.3 mph60%29.88 "Hg25 mi
12:00 PM66 °FPassing clouds.3 mph72%29.89 "Hg16 mi
10:00 AM59 °FSunny.1 mph91%29.92 "Hg11 mi
9:00 AM54 °FSunny.1 mph98%29.94 "Hg8 mi
8:00 AM53 °FFog.No wind100%29.94 "Hg5 mi
7:00 AM53 °FFog.No wind99%29.95 "Hg5 mi
6:00 AM54 °FClear.1 mph99%29.95 "Hg8 mi
4:00 AM53 °FClear.2 mph97%29.96 "Hg2 mi
3:00 AM55 °FFog.1 mph96%29.96 "Hg4 mi
2:00 AM54 °FFog.1 mph95%29.96 "Hg4 mi
Weather by CustomWeather, © 2014

See weather overviewHow to use our weather pages